Location: Newark
(48.4472°N, 1.4892°E)
Time: 08:53:43
(UTC+00:00)

Tiros 1 despin weight - Visible Passes

Search period start: 18 November 2019 00:00
Search period end: 28 November 2019 00:00
Orbit: 594 x 642 km, 48.2° (Epoch: 17 November)

Date Brightness Start Highest point End Pass type
(mag) Time Alt. Az. Time Alt. Az. Time Alt. Az.
18 Nov ? 17:22:03 10° W 17:26:31 73° SSW 17:30:27 13° ESE visible
18 Nov ? 19:03:48 10° W 19:07:32 29° SW 19:07:32 29° SW visible
19 Nov ? 17:38:39 10° W 17:43:01 54° SSW 17:46:40 15° SE visible
19 Nov ? 19:20:53 10° W 19:23:45 18° SW 19:23:45 18° SW visible
20 Nov ? 17:55:18 10° W 17:59:26 37° SSW 18:03:04 13° SE visible
21 Nov ? 18:12:09 10° W 18:15:46 24° SW 18:19:23 10° SSE visible
22 Nov ? 16:46:52 10° W 16:51:09 46° SSW 16:55:28 10° SE visible
22 Nov ? 18:29:35 10° WSW 18:31:58 14° SW 18:34:20 10° S visible
23 Nov ? 17:03:36 10° W 17:07:31 31° SSW 17:11:29 10° SSE visible
24 Nov ? 17:20:37 10° W 17:23:47 19° SW 17:26:59 10° S visible
25 Nov ? 17:38:51 10° WSW 17:39:57 11° SW 17:41:02 10° SSW visible
